Location: Broekland
(52.3610°N, 6.2005°E)
Time: 05:16:26
(UTC+00:00)

Cosmos 44 - Pass Details

Date: 19 May 2025
Orbit: 589 x 763 km, 65.1° (Epoch: 14 June)

Event Time Altitude Azimuth Distance (km) Brightness Sun altitude
Rises 21:15:17 0° 313° (NW) 2,901 8.2 -11.8°
Reaches altitude 10° 21:17:38 10° 305° (NW) 2,015 6.9 -12.0°
Maximum altitude 21:21:49 37° 239° (WSW) 1,015 4.1 -12.3°
Enters shadow 21:25:15 15° 177° (S) 1,774 4.9 -12.6°
